Content
SEND FEEDBACK

Daily
Averages
Monthly
Summary
United States of America

COMANCHE, TEXAS


Home > North America > United States > Texas
Elevation: 1360 feet     Latitude: 31 54N     Longitude: 098 36W

WEATHER
 
SELECT A DAY
Number of Records: 230,154;   Date Range: 10/5/04 - 7/26/14
 
SHARE

PRINT THIS DATA

[ ← Previous Day ]
WEATHER ALMANAC - JANUARY 23, 2013
[ Next Day → ]
[ °C ]   °F
Weather ElementAverageHighLow
Temperature60.7 °F77 °F (3:35 pm)46.4 °F (7:15 am)
Dewpoint47.8 °F51.8 °F (8:15 pm)44.6 °F (12:35 am)
Humidity64.8 %93 % (7:15 am)36 % (2:55 pm)
Barometer30.21 in30.28 in (9:55 am)30.14 in (5:55 pm)
Wind Speed9.7 mph16.1 mph (9:35 pm)
Wind Gust23 mph (11:35 pm)
Weather ElementAverage
Visibility10 mi
Wind DirectionSSW (189.3 °)

Weather ElementTotal
Precipitation---
Heating Degree Days3.3 (Base 65)
Growing Degree Days11.7 (Base 50)
Averaged from 70 records on January 23, 2013
WEATHER CONDITIONS BREAKOUT
WIND DIRECTION BREAKOUT
WEATHER BY HOUR - JANUARY 23, 2013
[ °C ]   °F
Local TimeTemperatureDewpointHumidityBarometerVisibilityWind DirectionWind SpeedGust SpeedPrecipitationEventsConditions
12:35 AM50.0 °F44.6 °F82 %30.22 in10.0 miSSW (200°)6.9 mphClear
12:55 AM50.0 °F44.6 °F82 %30.22 in10.0 miSSW (210°)5.8 mphClear
1:15 AM50.0 °F44.6 °F82 %30.22 in10.0 miSSW (200°)6.9 mphClear
1:35 AM50.0 °F44.6 °F82 %30.22 in10.0 miSouth (190°)8.1 mphClear
1:55 AM51.8 °F44.6 °F76 %30.22 in10.0 miSouth (190°)10.4 mphClear
2:15 AM53.6 °F44.6 °F72 %30.21 in10.0 miSouth (190°)11.5 mphClear
2:35 AM53.6 °F44.6 °F72 %30.21 in10.0 miSSW (200°)13.8 mphClear
2:55 AM53.6 °F44.6 °F72 %30.22 in10.0 miSSW (200°)10.4 mphClear
3:15 AM53.6 °F44.6 °F72 %30.22 in10.0 miSSW (200°)8.1 mphClear
3:35 AM51.8 °F44.6 °F76 %30.22 in10.0 miSSW (200°)11.5 mphClear
3:55 AM51.8 °F44.6 °F76 %30.22 in10.0 miSSW (200°)10.4 mphClear
4:15 AM51.8 °F44.6 °F76 %30.22 in10.0 miSSW (200°)11.5 mphClear
4:35 AM50.0 °F44.6 °F82 %30.22 in10.0 miSSW (200°)13.8 mphClear
4:55 AM50.0 °F44.6 °F82 %30.21 in10.0 miSSW (200°)13.8 mph20.7 mphClear
5:15 AM50.0 °F44.6 °F82 %30.21 in10.0 miSSW (200°)12.7 mphClear
5:35 AM50.0 °F44.6 °F82 %30.22 in10.0 miSSW (200°)9.2 mphClear
5:55 AM48.2 °F44.6 °F87 %30.24 in10.0 miCalmClear
6:15 AM48.2 °F44.6 °F87 %30.25 in10.0 miCalmClear
6:55 AM48.2 °F44.6 °F87 %30.26 in10.0 miCalmClear
7:15 AM46.4 °F44.6 °F93 %30.26 in10.0 miCalmClear
7:35 AM48.2 °F44.6 °F87 %30.26 in10.0 miCalmClear
7:55 AM46.4 °F44.6 °F93 %30.25 in10.0 miSouth (170°)4.6 mphClear
8:15 AM48.2 °F44.6 °F87 %30.26 in10.0 miSSE (150°)3.5 mphClear
8:35 AM50.0 °F46.4 °F87 %30.26 in10.0 miSSE (160°)3.5 mphClear
8:55 AM51.8 °F46.4 °F82 %30.26 in10.0 miSouth (190°)3.5 mphClear
9:15 AM55.4 °F48.2 °F77 %30.27 in10.0 miSSW (210°)9.2 mphClear
9:35 AM57.2 °F48.2 °F72 %30.27 in10.0 miSW (230°)8.1 mphClear
9:55 AM59.0 °F48.2 °F67 %30.28 in10.0 miSSW (200°)11.5 mphClear
10:15 AM60.8 °F48.2 °F63 %30.28 in10.0 miSW (220°)11.5 mph18.4 mphClear
10:35 AM62.6 °F48.2 °F59 %30.28 in10.0 miSSW (210°)11.5 mph16.1 mphClear
10:55 AM62.6 °F48.2 °F59 %30.28 in10.0 miSW (230°)10.4 mph19.6 mphClear
11:15 AM64.4 °F50.0 °F59 %30.27 in10.0 miSW (230°)11.5 mph18.4 mphClear
11:35 AM64.4 °F50.0 °F59 %30.27 in10.0 miSSW (210°)9.2 mph17.3 mphClear
11:55 AM66.2 °F50.0 °F56 %30.26 in10.0 miSW (230°)12.7 mph19.6 mphClear
12:15 PM68.0 °F50.0 °F52 %30.25 in10.0 miSSW (210°)12.7 mph16.1 mphClear
12:35 PM68.0 °F50.0 °F52 %30.23 in10.0 miSSW (210°)13.8 mph21.9 mphClear
12:55 PM69.8 °F50.0 °F49 %30.22 in10.0 miSSW (200°)10.4 mph18.4 mphClear
1:15 PM69.8 °F50.0 °F49 %30.21 in10.0 miSW (220°)10.4 mphClear
1:35 PM71.6 °F50.0 °F46 %30.20 in10.0 miSSW (210°)11.5 mph17.3 mphClear
1:55 PM73.4 °F48.2 °F41 %30.19 in10.0 miSW (220°)11.5 mphClear
2:15 PM73.4 °F46.4 °F38 %30.19 in10.0 miWSW (240°)11.5 mph17.3 mphClear
2:35 PM73.4 °F46.4 °F38 %30.19 in10.0 miWSW (240°)11.5 mph18.4 mphClear
2:55 PM75.2 °F46.4 °F36 %30.19 in10.0 miWSW (240°)12.7 mphClear
3:15 PM75.2 °F48.2 °F38 %30.17 in10.0 miWSW (240°)6.9 mph16.1 mphClear
3:35 PM77.0 °F48.2 °F36 %30.17 in10.0 miSSW (200°)11.5 mph16.1 mphClear
3:55 PM75.2 °F48.2 °F38 %30.16 in10.0 miSSW (200°)13.8 mphClear
4:15 PM75.2 °F48.2 °F38 %30.16 in10.0 miSSW (210°)9.2 mphClear
4:35 PM75.2 °F48.2 °F38 %30.16 in10.0 miSSW (210°)9.2 mph19.6 mphClear
4:55 PM73.4 °F48.2 °F41 %30.15 in10.0 miSSW (210°)10.4 mph16.1 mphClear
5:15 PM73.4 °F48.2 °F41 %30.15 in10.0 miSSW (200°)13.8 mph17.3 mphClear
5:35 PM71.6 °F48.2 °F43 %30.15 in10.0 miSSW (200°)10.4 mphClear
5:55 PM69.8 °F48.2 °F46 %30.14 in10.0 miSSW (200°)8.1 mphClear
6:15 PM68.0 °F48.2 °F49 %30.14 in10.0 miSouth (190°)8.1 mphClear
6:35 PM64.4 °F48.2 °F56 %30.14 in10.0 miSouth (190°)6.9 mphClear
6:55 PM64.4 °F48.2 °F56 %30.15 in10.0 miSouth (180°)6.9 mphClear
7:15 PM64.4 °F50.0 °F59 %30.16 in10.0 miSouth (190°)8.1 mphClear
7:35 PM62.6 °F50.0 °F63 %30.17 in10.0 miSouth (170°)5.8 mphClear
7:55 PM62.6 °F50.0 °F63 %30.17 in10.0 miSouth (180°)6.9 mphClear
8:15 PM60.8 °F51.8 °F72 %30.17 in10.0 miSouth (190°)9.2 mphClear
8:35 PM62.6 °F51.8 °F68 %30.16 in10.0 miSouth (190°)11.5 mphClear
8:55 PM62.6 °F51.8 °F68 %30.15 in10.0 miSSW (200°)13.8 mphClear
9:15 PM62.6 °F51.8 °F68 %30.15 in10.0 miSSW (200°)13.8 mphClear
9:35 PM62.6 °F51.8 °F68 %30.15 in10.0 miSSW (200°)16.1 mph20.7 mphClear
9:55 PM60.8 °F51.8 °F72 %30.15 in10.0 miSSW (200°)13.8 mph20.7 mphClear
10:15 PM62.6 °F51.8 °F68 %30.16 in10.0 miSSW (210°)10.4 mphClear
10:35 PM62.6 °F51.8 °F68 %30.17 in10.0 miSSW (210°)12.7 mphClear
10:55 PM62.6 °F51.8 °F68 %30.17 in10.0 miSSW (210°)12.7 mphClear
11:15 PM62.6 °F51.8 °F68 %30.17 in10.0 miSW (220°)15.0 mphClear
11:35 PM62.6 °F51.8 °F68 %30.17 in10.0 miSW (220°)15.0 mph23.0 mphClear
11:55 PM62.6 °F51.8 °F68 %30.17 in10.0 miSW (220°)15.0 mph21.9 mphClear
Hourly data recorded from KMKN, located miles away from Comanche, Texas







STORIES FROM OUR PARTNERS